User: anonymous   Login
Location: Newark
(47.5833°N, 8.1500°E)
Time: 02:42:01
(UTC+00:00)
Language:

Transit 2A - Orbit

View from above orbital plane
View from above orbital plane
View from above satellite
View from above satellite

Ground track
Ground track

The orbit data is extracted from the following two-line orbital elements,

1 00045U 60007A   21127.61953973 -.00000080  00000-0  66254-5 0  9995
2 00045  66.6948 246.6184 0247859  79.3153 283.5750 14.33718744112303
Epoch (UTC): 07 May 2021 14:52:08
Eccentricity: 0.0247859
inclination: 66.6948°
perigee height: 602 km
apogee height: 957 km
right ascension of ascending node: 246.6184°
argument of perigee: 79.3153°
revolutions per day: 14.33718744
mean anomaly at epoch: 283.5750°
orbit number at epoch: 11230

The dashed part of the orbit path shows where the satellite is in the earth's shadow,  

DLR